Flag for Morocco Weather past 2 weeks in Tangier, Morocco

Now
66 °F

Passing clouds.


Feels Like: 66 °F
Forecast: 64 / 77 °F
Wind: 6 mph from West

Location: Tanger Aerodrome

Current Time: Sep 4, 2015 at 10:09:42 PM

Latest Report: Sep 4, 2015 at 9:30 PM


Visibility: N/A

Pressure: 30.04 "Hg

Humidity: 73%

Dew point: 57 °F

Location of TangierLocation

Historic Weather in Tangier — Graph

°F

Tangier temperature yesterday

Maximum temperature yesterday: 73 °F (at 11:30 AM)
Minimum temperature yesterday: 68 °F (at 1:30 AM)
Average temperature yesterday: 70 °F

Past Weeks' High & Low Weather Summary

 TemperatureHumidityPressure
High91 °F (Aug 30, 3:30 PM)94% (Aug 21, 7:00 AM)30.09 "Hg (Aug 21, 7:00 AM)
Low61 °F (Aug 25, 7:00 AM)40% (Aug 27, 3:30 PM)29.83 "Hg (Aug 28, 5:00 PM)
Average75 °F70%30.00 "Hg
* Reported Aug 20 9:00 PM — Sep 4 9:00 PM, Tangier, Weather by CustomWeather, © 2015

Note: Actual official high and low records may vary slightly from our data, if they occured in-between our weather recording intervals... More about our weather records

Advertising

Tangier weather history for previous 24 hours

 ConditionsComfort  
Time TempWeatherWind HumidityBarometerVisibility
9:00 PM
Fri, Sep 4
66 °FPassing clouds.9 mph73%30.04 "HgN/A
8:30 PM66 °FPassing clouds.9 mph73%30.04 "HgN/A
8:00 PM68 °FPassing clouds.8 mph73%30.01 "HgN/A
7:30 PM68 °FScattered clouds.12 mph73%30.01 "HgN/A
7:00 PM70 °FScattered clouds.13 mph64%30.01 "HgN/A
6:30 PM70 °FScattered clouds.13 mph69%30.01 "HgN/A
6:00 PM72 °FScattered clouds.15 mph61%30.01 "HgN/A
5:00 PM72 °FScattered clouds.16 mph65%30.01 "HgN/A
4:30 PM72 °FScattered clouds.15 mph65%30.01 "HgN/A
4:00 PM73 °FScattered clouds.16 mph57%30.01 "HgN/A
3:30 PM73 °FScattered clouds.18 mph53%30.01 "HgN/A
3:00 PM73 °FScattered clouds.17 mph57%30.01 "HgN/A
2:30 PM73 °FScattered clouds.20 mph57%30.04 "HgN/A
2:00 PM73 °FScattered clouds.20 mph57%30.04 "HgN/A
1:30 PM73 °FScattered clouds.21 mph57%30.04 "HgN/A
1:00 PM75 °FScattered clouds.20 mph54%30.04 "HgN/A
12:30 PM73 °FScattered clouds.20 mph57%30.07 "HgN/A
12:00 PM73 °FScattered clouds.17 mph53%30.07 "HgN/A
11:30 AM73 °FBroken clouds.17 mph57%30.07 "HgN/A
11:00 AM73 °FScattered clouds.18 mph57%30.07 "HgN/A
10:30 AM73 °FScattered clouds.17 mph57%30.07 "HgN/A
10:00 AM72 °FScattered clouds.16 mph61%30.04 "HgN/A
9:30 AM70 °FScattered clouds.15 mph64%30.04 "HgN/A
9:00 AM70 °FPartly sunny.12 mph64%30.04 "HgN/A
8:30 AM68 °FScattered clouds.9 mph69%30.04 "HgN/A
8:00 AM68 °FPartly sunny.10 mph69%30.04 "HgN/A
7:30 AM68 °FPartly sunny.9 mph69%30.01 "HgN/A
7:00 AM66 °FPartly sunny.9 mph68%30.01 "HgN/A
6:30 AM66 °FMild.12 mph73%30.01 "HgN/A
6:00 AM66 °FPassing clouds.9 mph73%30.01 "HgN/A
5:30 AM66 °FPassing clouds.9 mph73%29.98 "HgN/A
5:00 AM66 °FPassing clouds.12 mph73%30.01 "HgN/A
4:30 AM68 °FPassing clouds.13 mph64%30.01 "HgN/A
4:00 AM68 °FPassing clouds.12 mph69%29.98 "HgN/A
3:30 AM66 °FPassing clouds.7 mph73%30.01 "HgN/A
3:00 AM66 °FPassing clouds.7 mph68%30.01 "HgN/A
2:30 AM68 °FPassing clouds.12 mph69%30.01 "HgN/A
2:00 AM66 °FPassing clouds.9 mph68%30.01 "HgN/A
1:30 AM66 °FPassing clouds.8 mph68%30.01 "HgN/A
1:00 AM66 °FPassing clouds.6 mph73%30.04 "HgN/A
12:30 AM66 °FPassing clouds.8 mph73%30.04 "HgN/A
12:00 AM66 °FPassing clouds.7 mph73%30.04 "HgN/A
11:30 PM
Thu, Sep 3
68 °FPassing clouds.8 mph69%30.04 "HgN/A
10:00 PM68 °FPassing clouds.9 mph64%30.04 "HgN/A
Weather by CustomWeather, © 2015

See weather overviewHow to use our weather pages